Flag for Germany Weather past 2 weeks in Solingen, North Rhine-Westphalia, Germany

Now
52 °F

Fog.


Feels Like: 51 °F
Forecast: 49 / 63 °F
Wind: 5 mph from South

Location: Duesseldorf

Current Time: Sep 2, 2015 at 7:25:13 AM

Latest Report: Sep 2, 2015 at 6:20 AM


Visibility: N/A

Pressure: 30.04 "Hg

Humidity: 94%

Dew point: 50 °F

Location of SolingenLocation

Historic Weather in Solingen — Graph

°F

Solingen temperature yesterday

Maximum temperature yesterday: 70 °F (at 12:20 AM)
Minimum temperature yesterday: 57 °F (at 11:20 PM)
Average temperature yesterday: 63 °F

Past Weeks' High & Low Weather Summary

 TemperatureHumidityPressure
High90 °F (Aug 30, 3:20 PM)100% (Aug 19, 6:20 AM)30.24 "Hg (Aug 19, 6:20 AM)
Low50 °F (Aug 19, 4:50 AM)30% (Aug 22, 5:20 PM)29.50 "Hg (Aug 24, 4:50 PM)
Average67 °F71%29.97 "Hg
* Reported Aug 18 6:20 AM — Sep 2 6:20 AM, Solingen, Weather by CustomWeather, © 2015

Note: Actual official high and low records may vary slightly from our data, if they occured in-between our weather recording intervals... More about our weather records

Advertising

Solingen weather history for previous 24 hours

 ConditionsComfort  
Time TempWeatherWind HumidityBarometerVisibility
6:20 AM
Wed, Sep 2
52 °FFog.5 mph94%30.04 "HgN/A
5:50 AM52 °FClear.5 mph94%30.04 "Hg10 mi
5:20 AM52 °FClear.5 mph94%30.04 "Hg10 mi
4:50 AM52 °FClear.7 mph94%30.07 "Hg10 mi
4:20 AM52 °FClear.6 mph94%30.04 "Hg10 mi
3:50 AM52 °FClear.6 mph94%30.07 "Hg10 mi
3:20 AM52 °FClear.6 mph94%30.07 "Hg10 mi
2:50 AM54 °FClear.6 mph94%30.07 "Hg10 mi
2:20 AM54 °FClear.5 mph88%30.07 "Hg10 mi
1:50 AM54 °FClear.6 mph88%30.07 "Hg10 mi
1:20 AM54 °FClear.5 mph88%30.07 "Hg10 mi
12:50 AM54 °FClear.3 mph94%30.04 "Hg10 mi
11:20 PM
Tue, Sep 1
57 °FClear.6 mph77%30.04 "Hg10 mi
10:50 PM59 °FClear.8 mph77%30.04 "Hg10 mi
10:20 PM59 °FPassing clouds.8 mph77%30.04 "HgN/A
9:50 PM59 °FPassing clouds.7 mph77%30.04 "HgN/A
9:20 PM61 °FPassing clouds.6 mph77%30.04 "HgN/A
8:50 PM61 °FScattered clouds.6 mph77%30.01 "HgN/A
8:20 PM63 °FPartly sunny.6 mph73%30.01 "HgN/A
7:50 PM63 °FPassing clouds.8 mph73%29.98 "HgN/A
7:20 PM64 °FPassing clouds.8 mph73%29.98 "HgN/A
6:50 PM64 °FScattered showers. Scattered clouds.7 mph73%29.98 "HgN/A
6:20 PM64 °FScattered clouds.5 mph73%29.98 "HgN/A
5:50 PM64 °FScattered showers. Broken clouds.9 mph73%29.95 "HgN/A
5:20 PM64 °FScattered showers. Broken clouds.9 mph78%29.95 "HgN/A
4:50 PM64 °FBroken clouds.9 mph78%29.95 "HgN/A
4:20 PM64 °FBroken clouds.8 mph83%29.95 "HgN/A
3:50 PM63 °FPartly sunny.9 mph88%29.95 "HgN/A
3:20 PM61 °FPartly sunny.9 mph94%29.95 "HgN/A
2:50 PM61 °FLight rain. Broken clouds.12 mph88%29.92 "HgN/A
2:20 PM63 °FPartly sunny.10 mph88%29.92 "HgN/A
1:50 PM61 °FLight rain. Broken clouds.10 mph94%29.89 "HgN/A
1:20 PM61 °FLight rain. Partly sunny.6 mph94%29.89 "HgN/A
12:50 PM61 °FLight rain. Partly sunny.9 mph94%29.89 "Hg6 mi
12:20 PM61 °FRain. Partly sunny.8 mph94%29.89 "Hg6 mi
11:50 AM61 °FRain. Broken clouds.7 mph94%29.86 "Hg6 mi
11:20 AM61 °FRain. Broken clouds.8 mph94%29.86 "Hg6 mi
10:50 AM61 °FRain. Broken clouds.8 mph94%29.86 "Hg6 mi
10:20 AM61 °FRain. Broken clouds.8 mph94%29.86 "Hg6 mi
9:50 AM61 °FRain. Broken clouds.9 mph94%29.83 "HgN/A
9:20 AM61 °FRain. Broken clouds.12 mph94%29.83 "HgN/A
8:50 AM63 °FLight rain. Partly sunny.10 mph88%29.83 "HgN/A
8:20 AM63 °FLight rain. Broken clouds.7 mph94%29.83 "Hg5 mi
7:50 AM63 °FRain. Partly sunny.8 mph94%29.86 "Hg3 mi
7:20 AM64 °FLight rain. Partly cloudy.7 mph83%29.83 "HgN/A
Weather by CustomWeather, © 2015

See weather overviewHow to use our weather pages